Temperature
8 6 6 6 7 8 8 8 8 9 12 12 12 13 14 15 16 16 17 17 18 18 18 18 18 18 17 17 17 17 17 16 16 15 14 14 13 13 13 12 12 12 12 12
7 6 7 7 8 8 8 7 8 9 11 12 11 12 13 15 15 16 17 17 17 17 16 17 17 17 16 16 16 16 16 15 15 15 14 13 13 13 12 12 12 11 11 11
6 7 8 8 7 7 7 7 7 8 10 11 11 11 13 14 15 16 17 17 17 17 17 16 16 16 15 15 15 15 14 14 14 14 13 13 13 12 12 11 11 11 11 11
6 7 8 7 7 7 7 8 9 9 9 9 11 10 12 13 14 15 16 17 17 17 16 16 15 15 14 14 14 13 13 13 13 13 13 13 13 12 12 11 11 11 11 10
6 6 7 7 7 8 7 9 9 9 8 8 9 9 10 12 13 15 15 16 16 16 16 15 14 14 14 13 13 13 13 13 13 13 13 13 12 12 12 11 11 10 10 9
6 7 7 7 8 9 8 9 8 8 8 8 9 9 10 12 13 14 15 15 15 14 14 14 13 13 12 12 12 12 12 12 12 12 12 12 12 12 11 11 10 10 9 9
6 6 7 7 7 7 8 7 7 7 7 8 10 10 11 12 14 15 15 14 13 13 12 12 12 12 12 11 12 12 12 12 12 12 12 12 12 11 11 10 9 9 8 8
5 5 6 7 7 7 7 7 6 6 7 8 10 10 12 13 14 15 16 14 11 10 11 11 12 11 11 11 11 12 12 12 11 11 11 11 11 10 10 9 9 8 8 7
5 6 7 8 8 7 6 6 7 7 8 9 10 11 12 13 13 13 13 11 10 9 9 10 11 11 11 11 11 12 12 12 11 11 11 10 10 9 9 8 8 7 7 7
5 5 7 8 7 7 7 7 7 6 7 9 10 11 12 13 12 11 11 10 9 8 8 9 10 10 10 11 11 11 11 12 11 10 10 10 9 9 8 8 7 7 6 6
6 5 6 6 6 6 6 7 7 7 7 9 10 12 14 14 13 12 11 10 9 8 8 9 9 10 10 10 11 11 11 11 10 10 9 9 9 8 7 7 6 6 5 5
6 5 6 6 8 8 8 8 8 8 8 8 9 12 14 13 13 12 11 10 9 8 8 9 9 9 10 10 10 10 10 10 10 9 9 8 8 7 6 6 6 5 5 4
6 5 6 7 7 7 7 8 9 9 8 8 9 12 12 11 11 11 11 10 9 8 8 9 9 9 10 10 10 10 10 9 9 8 8 7 7 6 6 5 5 4 4 3
7 6 6 7 8 8 8 8 9 8 8 9 10 11 12 11 11 10 10 9 8 8 8 9 9 9 9 10 10 9 9 8 8 7 7 6 6 5 5 5 4 3 3 2
7 6 6 7 8 8 9 9 9 9 9 9 11 12 12 12 11 10 10 9 8 8 7 9 9 9 9 9 9 8 8 7 7 6 6 5 5 5 4 4 3 2 2 1
7 7 7 8 9 9 9 10 10 9 9 9 11 12 13 11 10 9 10 9 9 8 8 8 9 9 9 9 8 8 7 6 6 6 5 5 4 4 3 3 2 2 1 1
8 7 7 9 10 10 10 11 10 10 10 10 12 13 12 12 11 9 10 10 9 9 8 9 10 10 9 9 8 7 6 6 5 5 4 4 4 3 3 2 1 1 1 0
8 8 8 9 10 10 12 12 12 12 12 12 13 13 13 12 10 11 11 11 10 10 9 9 10 9 9 8 7 7 6 5 4 4 4 3 3 2 2 1 1 0 -0 -1
9 9 9 9 10 11 13 12 12 12 12 12 12 11 9 10 10 10 11 12 12 11 11 10 10 10 9 8 7 6 5 4 4 3 3 3 2 1 1 0 -0 -1 -1 -1
8 9 9 9 10 10 13 13 12 12 12 12 11 10 8 10 10 9 10 12 12 11 11 10 10 9 8 7 6 5 4 4 3 3 2 2 1 1 0 -0 -1 -1 -2 -2
8 9 9 9 9 10 11 11 13 12 12 11 10 10 9 9 10 8 9 11 11 11 10 10 9 8 7 6 5 4 4 3 3 2 2 1 0 0 -0 -1 -1 -2 -2 -3
8 8 8 9 9 10 12 12 12 11 10 9 8 9 8 6 7 8 9 10 10 10 9 9 8 7 6 5 4 4 3 2 2 1 1 0 -0 -1 -1 -2 -2 -3 -3 -3
8 8 8 9 10 10 10 11 11 11 10 8 7 8 8 6 6 7 8 9 9 8 8 7 7 5 4 4 3 3 2 2 1 1 0 -0 -1 -1 -2 -2 -3 -3 -3 -4
8 9 8 9 9 9 10 11 11 12 11 10 9 8 9 7 7 7 7 7 7 7 6 6 5 4 3 2 2 2 1 1 0 -0 -1 -1 -1 -2 -2 -3 -3 -3 -4 -5
9 8 8 9 9 8 9 10 11 11 10 9 8 8 9 9 8 7 7 6 6 5 5 5 4 3 2 1 1 1 0 -0 -0 -1 -1 -2 -2 -2 -3 -3 -3 -4 -5 -6
8 8 9 9 9 8 8 9 10 10 9 9 8 7 8 9 8 7 7 6 6 5 4 3 3 2 1 1 0 -0 -1 -1 -1 -1 -2 -2 -3 -3 -3 -3 -4 -4 -6 -6
Wind_Speed
5 5 9 11 14 9 6 7 9 6 7 7 15 20 16 15 14 14 14 12 10 10 6 6 6 7 7 7 8 9 12 12 13 11 9 9 8 7 8 9 12 14 14 14
5 12 13 9 8 11 13 16 15 10 8 9 13 19 15 17 16 16 18 15 12 9 7 7 6 5 6 8 9 10 11 10 10 9 8 6 7 7 7 6 10 14 14 13
15 5 12 15 13 12 15 15 13 10 12 12 12 14 15 15 15 17 17 15 14 17 16 11 8 7 8 9 10 11 11 12 13 13 13 12 8 6 5 6 6 8 12 13
11 13 9 10 14 14 16 9 11 11 9 7 6 9 9 11 16 19 19 16 15 15 13 12 11 10 9 9 10 12 12 13 12 13 14 14 9 7 5 5 6 6 10 11
10 10 17 19 17 13 8 4 7 8 9 11 12 12 10 9 16 19 20 17 17 18 18 16 13 11 10 10 11 11 12 12 10 10 11 12 10 8 7 7 8 7 6 8
12 7 10 15 16 15 7 3 6 6 6 14 19 12 10 10 15 12 17 16 17 18 16 13 10 11 11 10 11 11 13 11 10 11 11 12 13 12 10 8 7 5 4 5
12 15 10 4 7 10 11 8 5 7 9 11 10 12 13 12 13 17 16 16 19 20 20 18 16 15 14 13 12 12 14 12 11 12 11 11 12 11 10 9 7 5 3 2
7 9 15 13 13 11 16 15 10 7 7 6 9 14 11 13 15 13 12 14 19 20 19 19 18 16 15 14 13 14 14 13 12 13 11 10 10 8 7 8 6 5 3 2
8 8 7 16 13 13 10 15 13 6 6 6 8 8 9 10 11 10 12 18 21 21 19 18 15 14 15 14 13 14 15 13 12 12 11 10 10 9 8 7 6 4 3 2
8 7 6 6 7 13 10 9 7 9 6 8 9 10 9 11 12 11 17 21 19 18 17 17 15 14 12 12 11 11 13 14 12 11 10 10 9 9 8 7 6 5 3 3
10 8 5 6 13 16 14 13 10 9 7 5 6 8 8 14 15 18 19 20 22 21 20 18 15 13 13 12 12 12 12 12 11 10 10 10 8 8 7 6 5 4 3 3
12 7 8 12 12 14 16 16 15 10 8 7 6 8 5 9 13 17 17 17 16 17 17 16 15 14 14 13 12 12 11 11 10 10 10 9 8 8 7 6 4 4 3 3
11 7 5 5 8 11 13 16 18 9 3 6 6 8 7 3 9 11 15 16 16 16 16 14 15 15 14 13 12 11 11 11 10 10 9 9 8 7 6 5 4 3 3 4
12 7 9 7 3 5 10 17 19 14 9 8 9 9 7 3 9 11 14 16 16 17 18 16 15 13 13 12 12 12 10 10 11 10 9 8 7 6 5 4 3 3 3 4
9 7 10 16 17 11 11 17 19 18 13 7 7 8 9 7 9 13 15 17 17 17 18 18 17 14 13 12 12 12 11 10 11 10 9 7 6 6 5 3 2 3 4 5
8 6 7 10 13 13 12 15 19 19 15 12 10 7 5 2 6 9 14 18 19 19 19 18 17 16 16 15 14 13 11 10 10 10 8 7 6 5 4 2 3 4 5 5
7 5 4 4 2 6 7 15 17 15 13 13 9 6 3 4 8 12 15 17 19 19 18 19 18 17 15 15 15 14 11 11 10 9 8 6 6 4 3 2 3 4 5 5
7 4 3 3 2 2 4 7 13 13 13 11 8 7 7 6 6 4 5 12 14 15 16 15 14 13 12 12 14 13 12 11 10 8 7 6 5 4 2 3 3 4 4 5
7 4 2 2 3 5 3 2 6 8 6 8 10 7 6 8 6 4 4 5 9 10 11 12 12 13 14 15 15 15 12 10 9 8 7 5 4 3 2 3 4 4 4 6
5 4 1 2 3 2 3 2 1 5 3 2 5 9 10 9 6 3 2 6 10 12 12 13 14 15 15 14 15 15 12 10 9 7 6 5 4 2 1 3 4 3 4 6
5 4 4 2 2 6 6 5 2 5 4 3 2 7 11 6 5 8 8 10 13 14 15 15 16 14 14 14 14 13 11 9 8 7 6 5 3 1 2 3 3 5 6 6
7 6 6 5 4 7 4 2 4 3 1 3 3 4 9 12 14 12 12 14 15 16 15 15 15 13 11 12 14 12 9 8 7 7 5 4 2 2 3 4 5 5 6 7
7 8 6 8 7 3 2 1 1 3 4 3 5 10 17 15 12 13 12 14 13 14 13 13 16 14 10 9 12 12 8 7 7 6 5 3 3 3 3 4 5 5 5 5
4 4 4 4 5 2 1 3 4 4 5 7 10 12 15 17 15 15 13 13 12 13 13 13 14 13 9 8 9 9 8 7 7 6 4 3 3 3 4 4 4 5 5 6
6 7 5 4 2 2 0 3 6 9 12 13 11 10 14 18 15 14 13 12 12 11 10 10 12 12 10 9 9 8 7 7 7 5 3 2 2 3 4 4 4 5 5 7
5 7 8 7 7 7 5 7 8 11 11 13 15 12 10 13 14 13 11 10 11 11 10 11 11 11 9 9 8 7 6 7 6 3 2 1 2 3 4 4 5 9 10 15
Wind_Direction
201 194 215 213 216 236 261 263 269 278 304 285 260 262 255 247 245 246 250 248 231 222 209 187 162 138 120 114 117 121 126 130 127 124 117 111 101 94 85 78 77 77 75 72
225 231 228 223 226 238 252 265 274 291 288 288 282 278 264 244 238 236 242 239 215 199 192 188 161 139 131 126 120 121 124 123 122 118 113 110 111 97 86 78 70 70 70 68
218 224 215 220 228 236 243 245 256 268 302 295 289 280 258 248 238 236 238 233 208 191 186 180 162 146 134 131 131 129 124 120 120 119 116 114 102 88 76 74 71 65 72 70
237 238 250 227 227 223 248 238 244 254 260 269 266 282 262 243 237 235 235 227 203 192 178 169 159 150 143 135 127 126 125 123 124 125 131 132 130 123 118 112 97 76 71 70
225 210 222 234 233 220 233 222 238 246 252 267 258 269 265 239 239 232 228 218 201 185 174 167 160 150 138 131 126 125 122 119 115 114 121 119 115 115 117 108 98 81 65 63
235 229 221 227 234 227 231 253 267 245 241 253 241 233 262 224 229 227 223 210 191 174 163 152 141 135 128 123 121 122 120 114 113 112 112 121 125 127 124 117 109 92 73 54
236 233 232 224 212 214 208 212 226 215 215 241 206 214 247 232 233 228 221 199 177 165 158 154 150 145 140 134 128 124 123 119 116 114 112 118 122 123 125 125 120 114 94 67
225 236 209 206 206 199 201 201 209 207 219 242 192 224 243 231 244 242 220 179 165 162 161 159 155 149 145 139 133 130 127 124 121 118 116 113 113 112 113 114 117 118 121 121
218 245 210 206 200 190 193 208 222 267 288 254 226 240 262 231 243 225 178 162 166 163 159 156 151 148 146 142 139 135 132 127 124 122 118 112 110 110 111 111 108 109 109 101
207 246 238 202 190 205 204 179 175 209 234 240 236 228 221 207 212 187 167 167 163 157 153 152 152 149 143 138 132 128 130 130 127 123 122 119 113 113 114 112 110 108 93 62
203 227 247 198 203 204 197 198 194 197 231 255 236 240 215 204 192 180 175 168 163 160 158 156 153 147 140 135 134 131 130 129 127 121 116 116 115 115 113 112 113 109 84 47
199 220 244 234 223 212 203 201 194 200 211 227 271 270 286 212 185 174 168 162 158 154 152 152 150 146 145 145 142 138 136 133 130 125 119 117 117 116 114 113 108 94 63 23
181 211 246 244 213 199 208 205 203 208 239 235 239 265 325 145 147 155 153 151 151 149 149 149 152 154 154 152 148 143 140 135 130 125 120 118 119 119 119 115 99 70 34 357
179 212 223 247 249 187 194 199 200 199 218 239 243 258 289 165 150 148 149 150 151 155 157 157 158 158 156 152 149 146 139 136 133 127 124 125 129 128 125 114 86 42 7 344
187 239 245 255 260 240 216 203 199 203 213 230 258 250 247 217 175 160 153 152 154 161 164 165 164 160 155 150 146 144 139 135 134 129 127 131 132 127 118 100 55 13 355 345
195 250 273 269 251 226 218 206 203 206 213 230 260 277 268 141 110 133 152 160 166 171 172 170 166 162 160 156 151 144 138 135 132 130 131 132 129 124 115 84 31 5 350 341
199 224 270 291 239 174 216 210 202 199 204 211 225 238 206 150 154 162 168 172 175 176 173 172 170 167 162 155 149 144 139 133 130 129 131 133 132 128 107 54 19 354 339 336
200 217 266 309 4 243 254 197 184 192 204 202 207 216 196 157 126 109 162 177 175 172 169 165 159 150 142 136 136 132 132 132 131 131 135 137 134 122 83 32 356 331 321 325
193 201 289 328 325 305 336 71 166 180 221 210 201 176 137 122 89 39 360 175 164 156 148 145 140 136 133 135 136 132 130 130 131 136 141 140 131 116 54 354 330 318 317 315
185 186 252 336 345 316 306 323 258 139 240 240 188 171 160 141 142 204 31 105 112 113 119 123 123 126 129 133 134 132 133 133 138 142 138 130 120 104 4 326 316 310 307 298
160 174 195 230 288 278 272 293 105 138 233 315 217 176 163 160 146 121 94 90 99 106 112 118 121 125 131 132 129 129 131 136 137 130 123 114 98 51 336 331 316 309 306 305
168 169 183 176 222 260 294 38 135 186 49 40 59 111 117 107 103 103 99 100 103 105 108 115 116 116 119 125 126 126 131 132 125 120 113 98 61 12 2 344 319 311 311 313
195 190 187 194 213 260 337 79 89 133 114 96 96 115 122 116 110 106 101 101 102 106 108 112 116 114 108 113 125 130 135 130 120 112 101 74 35 11 357 335 319 317 319 318
238 171 163 233 261 258 21 53 49 74 102 104 114 121 122 118 117 111 109 106 105 107 111 115 116 117 113 109 111 123 129 122 115 107 87 55 23 353 341 327 316 317 317 313
212 169 176 234 248 114 350 113 104 93 99 100 93 100 119 120 118 118 115 114 114 113 112 114 120 122 121 116 113 116 116 112 108 100 76 37 359 330 321 321 317 322 299 305
194 176 176 212 203 180 183 145 126 117 116 118 113 99 96 115 120 118 115 117 120 120 117 115 116 120 121 118 114 110 108 111 112 102 67 351 319 313 315 319 320 328 329 327
Height
1485 1489 1487 1486 1485 1484 1484 1483 1483 1480 1475 1474 1467 1461 1458 1457 1457 1455 1455 1455 1455 1456 1457 1459 1459 1460 1460 1461 1462 1464 1467 1470 1473 1476 1480 1484 1488 1491 1493 1495 1497 1498 1499 1499
1486 1484 1481 1482 1483 1484 1484 1484 1482 1480 1476 1473 1467 1458 1452 1449 1448 1448 1448 1449 1451 1453 1454 1454 1455 1456 1457 1458 1459 1461 1464 1467 1471 1475 1479 1484 1487 1490 1492 1494 1496 1497 1498 1498
1480 1476 1475 1479 1481 1482 1480 1482 1482 1483 1477 1471 1469 1456 1446 1440 1440 1440 1440 1441 1443 1445 1447 1449 1450 1452 1454 1456 1457 1460 1463 1467 1471 1475 1479 1482 1485 1488 1491 1493 1494 1495 1496 1496
1476 1475 1474 1475 1476 1478 1477 1475 1477 1478 1480 1475 1468 1459 1441 1434 1432 1430 1430 1432 1434 1437 1440 1443 1446 1448 1451 1454 1457 1460 1463 1467 1471 1474 1477 1480 1483 1486 1489 1491 1493 1494 1494 1494
1468 1468 1469 1470 1469 1472 1473 1471 1473 1474 1476 1475 1467 1465 1440 1431 1425 1419 1419 1422 1425 1429 1433 1437 1441 1445 1449 1452 1455 1459 1463 1466 1470 1473 1477 1480 1483 1485 1488 1490 1492 1493 1493 1492
1464 1464 1463 1462 1463 1467 1468 1471 1471 1470 1473 1468 1453 1460 1435 1423 1413 1410 1409 1412 1416 1421 1427 1433 1438 1443 1446 1450 1455 1458 1462 1465 1469 1473 1476 1480 1482 1484 1486 1489 1490 1491 1491 1490
1458 1459 1459 1459 1461 1462 1467 1473 1473 1470 1466 1454 1440 1444 1422 1409 1403 1400 1400 1403 1408 1414 1421 1427 1433 1438 1443 1448 1452 1457 1461 1464 1468 1472 1476 1479 1482 1484 1486 1487 1489 1489 1489 1488
1456 1453 1450 1451 1452 1454 1457 1463 1465 1464 1458 1444 1433 1426 1408 1398 1394 1393 1394 1397 1403 1410 1416 1422 1429 1435 1440 1445 1450 1455 1460 1463 1468 1471 1475 1478 1481 1483 1485 1486 1487 1487 1486 1485
1451 1447 1438 1438 1441 1447 1452 1453 1452 1454 1445 1438 1423 1411 1399 1390 1387 1386 1389 1394 1400 1406 1412 1419 1426 1433 1438 1444 1449 1454 1459 1463 1467 1471 1474 1477 1480 1482 1483 1484 1485 1485 1484 1482
1444 1445 1435 1433 1437 1439 1441 1443 1451 1454 1447 1433 1416 1406 1393 1384 1383 1384 1386 1390 1397 1405 1411 1418 1425 1432 1438 1444 1449 1455 1459 1463 1466 1470 1474 1476 1478 1480 1482 1483 1483 1482 1481 1479
1438 1441 1434 1432 1429 1428 1436 1437 1436 1439 1439 1426 1409 1394 1371 1370 1372 1378 1382 1388 1394 1401 1409 1416 1424 1431 1438 1444 1449 1454 1459 1462 1466 1469 1472 1475 1477 1479 1480 1480 1480 1480 1478 1477
1431 1433 1428 1422 1415 1417 1421 1422 1426 1429 1426 1424 1414 1392 1365 1365 1367 1373 1381 1389 1396 1402 1409 1416 1423 1430 1437 1442 1447 1452 1457 1461 1465 1468 1471 1473 1475 1477 1478 1478 1478 1477 1476 1474
1424 1427 1422 1412 1412 1413 1414 1413 1415 1418 1419 1416 1410 1391 1368 1367 1371 1376 1382 1389 1397 1404 1410 1417 1423 1429 1435 1440 1446 1451 1456 1460 1463 1467 1469 1472 1474 1475 1476 1476 1475 1474 1473 1471
1416 1418 1416 1404 1396 1398 1401 1404 1406 1413 1413 1408 1400 1388 1376 1374 1375 1379 1384 1390 1396 1403 1409 1415 1421 1427 1433 1439 1444 1449 1454 1458 1462 1465 1468 1470 1472 1473 1474 1473 1473 1471 1470 1467
1411 1409 1404 1398 1393 1392 1391 1393 1397 1402 1402 1402 1393 1385 1377 1374 1374 1377 1383 1390 1397 1403 1408 1413 1419 1425 1431 1437 1442 1448 1452 1456 1460 1464 1467 1469 1470 1471 1471 1471 1470 1468 1466 1464
1405 1404 1399 1390 1381 1382 1384 1385 1389 1392 1396 1397 1391 1383 1374 1375 1376 1379 1384 1389 1395 1400 1405 1411 1417 1423 1428 1434 1440 1445 1450 1455 1459 1463 1465 1467 1469 1469 1469 1468 1467 1465 1463 1460
1399 1399 1395 1384 1375 1378 1380 1375 1379 1383 1386 1388 1386 1379 1375 1376 1376 1379 1383 1387 1391 1396 1402 1407 1413 1419 1426 1432 1438 1444 1449 1454 1458 1461 1464 1465 1466 1467 1466 1465 1464 1462 1459 1456
1393 1394 1391 1384 1379 1378 1370 1361 1366 1373 1375 1377 1376 1375 1373 1373 1377 1380 1384 1386 1390 1395 1400 1406 1413 1419 1426 1432 1438 1444 1449 1453 1457 1460 1462 1464 1464 1464 1463 1462 1461 1458 1455 1452
1388 1389 1388 1387 1382 1375 1365 1363 1364 1369 1371 1370 1371 1372 1374 1375 1379 1383 1385 1388 1391 1396 1401 1407 1413 1419 1426 1432 1438 1443 1448 1452 1456 1458 1460 1462 1462 1462 1461 1459 1457 1455 1451 1448
1386 1387 1389 1388 1385 1381 1368 1363 1362 1367 1371 1366 1366 1369 1372 1375 1383 1385 1385 1388 1393 1398 1403 1408 1414 1421 1427 1432 1438 1443 1447 1451 1454 1457 1459 1459 1459 1459 1458 1456 1454 1451 1447 1443
1386 1387 1389 1388 1387 1379 1367 1362 1362 1374 1371 1364 1364 1365 1369 1372 1376 1382 1384 1388 1394 1399 1405 1410 1416 1422 1427 1433 1438 1442 1447 1450 1454 1456 1457 1457 1457 1456 1455 1453 1450 1447 1443 1439
1382 1385 1387 1387 1387 1382 1364 1362 1366 1367 1365 1364 1363 1365 1369 1373 1377 1382 1387 1391 1396 1401 1407 1413 1418 1423 1429 1434 1439 1443 1447 1450 1452 1454 1455 1455 1455 1454 1452 1450 1446 1443 1438 1433
1376 1376 1377 1377 1376 1368 1365 1364 1365 1364 1365 1365 1365 1367 1370 1375 1381 1386 1391 1396 1401 1406 1411 1416 1421 1425 1431 1436 1440 1443 1447 1449 1451 1452 1453 1453 1452 1451 1449 1446 1442 1438 1433 1428
1371 1369 1372 1372 1369 1367 1366 1366 1366 1366 1366 1367 1369 1371 1374 1378 1385 1390 1396 1401 1405 1410 1415 1419 1423 1427 1432 1437 1442 1444 1447 1448 1450 1450 1451 1451 1450 1448 1445 1442 1438 1433 1429 1424
1365 1367 1369 1369 1367 1367 1367 1367 1367 1368 1370 1372 1375 1378 1380 1383 1390 1395 1400 1405 1409 1414 1418 1422 1426 1430 1434 1438 1442 1444 1446 1447 1448 1449 1449 1448 1447 1444 1441 1438 1434 1429 1425 1421
1362 1363 1365 1364 1362 1364 1365 1367 1369 1371 1373 1376 1379 1383 1388 1391 1395 1400 1404 1409 1413 1417 1421 1424 1428 1432 1436 1439 1442 1444 1445 1447 1447 1447 1447 1445 1443 1440 1437 1434 1430 1426 1423 1418